Weather History for KMOP - May, 2013

Change the Weather History Date:

Friday, May 3, 2013

  Actual Average (KAMN) Record (KAMN)
Temperature  
Mean Temperature 66 °F -  
Max Temperature 80 °F 63 °F 86 °F (1955)
Min Temperature 53 °F 38 °F 26 °F (2004)
Cooling Degree Days 2    
Growing Degree Days 16 (Base 50)    
Moisture  
Dew Point 47 °F    
Average Humidity 53    
Maximum Humidity 84    
Minimum Humidity 26    
Precipitation  
Precipitation 0.00 in - - ()
Sea Level Pressure  
Sea Level Pressure 30.08 in    
Wind  
Wind Speed 5 mph (ESE)    
Max Wind Speed 17 mph    
Max Gust Speed 25 mph    
Visibility 10 miles    
Events      
Averages and records for this station are not official NWS values.
T = Trace of Precipitation, MM = Missing Value Source: NWS Daily Summary

Daily Weather History Graph

Daily Weather History Graph

Search for Another Location

Airport or City:

Trip Planner

Search our weather history database for the weather conditions in past years. The results will help you decide how hot, cold, wet, or windy it might be!

Date:

Astronomy

May. 03, 2013 Rise Set
Actual Time 6:28 AM EDT 8:44 PM EDT
Civil Twilight 5:56 AM EDT 9:15 PM EDT
Nautical Twilight 5:17 AM EDT 9:55 PM EDT
Astronomical Twilight 4:34 AM EDT 10:39 PM EDT
Moon 3:04 AM EDT (5/3) 2:26 PM EDT (5/3)
Length of Visible Light 15h 19m
Length of Day
14h 15m
Last Quarter, 37% of the Moon is Illuminated
May 3
Last Quarter
May 9
New
May 18
First Quarter
May 25
Full
May 31
Last Quarter

Hourly Weather History & Observations

Time (EDT) Temp. Dew Point Humidity Pressure Visibility Wind Dir Wind Speed Gust Speed Precip Events Conditions
12:14 AM 66.2 °F 50.4 °F 57% 30.13 in 10.0 mi ESE 4.6 mph - N/A   Overcast
12:35 AM 64.8 °F 50.7 °F 60% 30.13 in 10.0 mi Calm Calm - N/A   Scattered Clouds
12:55 AM 64.2 °F 50.4 °F 61% 30.13 in 10.0 mi Calm Calm - N/A   Mostly Cloudy
1:14 AM 62.6 °F 52.0 °F 68% 30.13 in 10.0 mi Calm Calm - N/A   Mostly Cloudy
1:35 AM 62.1 °F 52.2 °F 70% 30.13 in 10.0 mi Calm Calm - N/A   Mostly Cloudy
1:54 AM 60.3 °F 52.2 °F 75% 30.12 in 10.0 mi Calm Calm - N/A   Mostly Cloudy
2:15 AM 60.4 °F 51.6 °F 73% 30.12 in 10.0 mi Calm Calm - N/A   Overcast
2:35 AM 58.8 °F 49.1 °F 70% 30.11 in 10.0 mi NNW 3.5 mph - N/A   Overcast
2:54 AM 57.4 °F 48.6 °F 72% 30.11 in 10.0 mi NNW 3.5 mph - N/A   Mostly Cloudy
3:15 AM 56.5 °F 48.4 °F 74% 30.11 in 10.0 mi NNW 3.5 mph - N/A   Scattered Clouds
3:35 AM 55.4 °F 47.8 °F 76% 30.10 in 10.0 mi Calm Calm - N/A   Clear
3:54 AM 55.2 °F 48.2 °F 77% 30.10 in 10.0 mi Calm Calm - N/A   Mostly Cloudy
4:15 AM 54.9 °F 48.2 °F 78% 30.10 in 10.0 mi Calm Calm - N/A   Mostly Cloudy
4:35 AM 54.7 °F 48.6 °F 80% 30.10 in 10.0 mi Calm Calm - N/A   Mostly Cloudy
4:54 AM 55.0 °F 49.1 °F 80% 30.09 in 10.0 mi Calm Calm - N/A   Overcast
5:15 AM 54.7 °F 49.3 °F 82% 30.09 in 10.0 mi Calm Calm - N/A   Scattered Clouds
5:35 AM 54.5 °F 49.1 °F 82% 30.10 in 10.0 mi Calm Calm - N/A   Clear
5:54 AM 53.8 °F 49.1 °F 84% 30.10 in 10.0 mi Calm Calm - N/A   Scattered Clouds
6:15 AM 54.5 °F 48.6 °F 80% 30.10 in 10.0 mi Calm Calm - N/A   Scattered Clouds
6:35 AM 53.8 °F 48.4 °F 82% 30.10 in 10.0 mi Calm Calm - N/A   Mostly Cloudy
6:54 AM 53.8 °F 48.4 °F 82% 30.10 in 10.0 mi Calm Calm - N/A   Scattered Clouds
7:15 AM 53.8 °F 48.9 °F 84% 30.11 in 10.0 mi Calm Calm - N/A   Scattered Clouds
7:35 AM 54.5 °F 49.1 °F 82% 30.11 in 10.0 mi Calm Calm - N/A   Scattered Clouds
7:54 AM 55.4 °F 49.1 °F 79% 30.11 in 10.0 mi Calm Calm - N/A   Scattered Clouds
8:15 AM 56.3 °F 49.5 °F 78% 30.11 in 10.0 mi Calm Calm - N/A   Mostly Cloudy
8:35 AM 57.9 °F 50.2 °F 75% 30.11 in 10.0 mi Calm Calm - N/A   Mostly Cloudy
8:54 AM 60.8 °F 47.1 °F 61% 30.11 in 10.0 mi Calm Calm - N/A   Scattered Clouds
9:15 AM 62.4 °F 46.4 °F 56% 30.11 in 7.0 mi SE 3.5 mph - N/A   Clear
9:35 AM 63.9 °F 46.9 °F 54% 30.10 in 10.0 mi SE 4.6 mph - N/A   Clear
9:54 AM 65.3 °F 47.5 °F 52% 30.10 in 10.0 mi SE 5.8 mph - N/A   Clear
10:15 AM 66.9 °F 48.9 °F 52% 30.10 in 10.0 mi ESE 8.1 mph - N/A   Clear
10:34 AM 68.9 °F 50.0 °F 51% 30.09 in 10.0 mi ESE 9.2 mph - N/A   Clear
10:55 AM 70.3 °F 50.4 °F 49% 30.09 in 10.0 mi SE 10.4 mph - N/A   Clear
11:15 AM 71.6 °F 51.4 °F 49% 30.09 in 10.0 mi ESE 10.4 mph - N/A   Clear
11:34 AM 72.1 °F 51.8 °F 49% 30.09 in 10.0 mi SE 9.2 mph - N/A   Clear
11:55 AM 72.7 °F 52.5 °F 49% 30.09 in 10.0 mi SE 8.1 mph - N/A   Clear
12:15 PM 74.7 °F 53.4 °F 47% 30.08 in 10.0 mi ESE 10.4 mph - N/A   Clear
12:34 PM 75.2 °F 53.4 °F 47% 30.08 in 10.0 mi SE 10.4 mph 19.6 mph N/A   Clear
12:55 PM 76.3 °F 53.4 °F 45% 30.07 in 10.0 mi SE 10.4 mph 16.1 mph N/A   Clear
1:15 PM 76.5 °F 52.3 °F 43% 30.07 in 10.0 mi SE 16.1 mph 20.7 mph N/A   Mostly Cloudy
1:34 PM 77.5 °F 52.7 °F 42% 30.06 in 10.0 mi SE 13.8 mph 19.6 mph N/A   Mostly Cloudy
1:55 PM 78.1 °F 51.8 °F 40% 30.05 in 10.0 mi SE 10.4 mph 19.6 mph N/A   Mostly Cloudy
2:15 PM 78.4 °F 51.8 °F 39% 30.05 in 10.0 mi SE 10.4 mph - N/A   Mostly Cloudy
2:34 PM 79.7 °F 50.0 °F 35% 30.05 in 10.0 mi SE 15.0 mph 23.0 mph N/A   Scattered Clouds
2:55 PM 78.6 °F 51.3 °F 38% 30.05 in 10.0 mi SE 12.7 mph 24.2 mph N/A   Mostly Cloudy
3:15 PM 78.3 °F 49.8 °F 37% 30.05 in 10.0 mi SE 13.8 mph 19.6 mph N/A   Overcast
3:34 PM 79.7 °F 50.9 °F 37% 30.04 in 10.0 mi SE 12.7 mph 20.7 mph N/A   Overcast
3:55 PM 78.6 °F 48.9 °F 35% 30.04 in 10.0 mi SE 15.0 mph 23.0 mph N/A   Overcast
4:15 PM 80.1 °F 48.2 °F 33% 30.03 in 10.0 mi SE 17.3 mph 23.0 mph N/A   Mostly Cloudy
4:34 PM 80.2 °F 47.5 °F 32% 30.03 in 10.0 mi SE 17.3 mph 21.9 mph N/A   Scattered Clouds
4:55 PM 77.4 °F 48.9 °F 37% 30.03 in 10.0 mi SE 13.8 mph 21.9 mph N/A   Scattered Clouds
5:15 PM 77.4 °F 50.2 °F 38% 30.03 in 10.0 mi SE 15.0 mph 25.3 mph N/A   Clear
5:34 PM 77.9 °F 50.2 °F 38% 30.03 in 10.0 mi SE 12.7 mph 17.3 mph N/A   Scattered Clouds
5:55 PM 77.5 °F 51.1 °F 40% 30.03 in 10.0 mi ESE 13.8 mph 20.7 mph N/A   Scattered Clouds
6:15 PM 77.7 °F 50.5 °F 38% 30.03 in 10.0 mi SE 15.0 mph 20.7 mph N/A   Clear
6:34 PM 77.0 °F 50.0 °F 39% 30.03 in 10.0 mi ESE 17.3 mph 21.9 mph N/A   Clear
6:55 PM 76.8 °F 50.0 °F 39% 30.03 in 10.0 mi ESE 13.8 mph 19.6 mph N/A   Clear
7:15 PM 75.9 °F 50.0 °F 40% 30.03 in 10.0 mi ESE 10.4 mph 21.9 mph N/A   Scattered Clouds
7:34 PM 75.0 °F 49.1 °F 40% 30.04 in 10.0 mi ESE 13.8 mph 20.7 mph N/A   Clear
7:55 PM 73.4 °F 46.4 °F 38% 30.05 in 10.0 mi SE 13.8 mph - N/A   Clear
8:15 PM 72.1 °F 42.1 °F 34% 30.06 in 10.0 mi ESE 11.5 mph - N/A   Clear
8:34 PM 71.2 °F 39.4 °F 31% 30.06 in 10.0 mi ESE 12.7 mph - N/A   Clear
8:55 PM 69.8 °F 35.4 °F 28% 30.06 in 10.0 mi ESE 10.4 mph - N/A   Clear
9:15 PM 69.1 °F 33.4 °F 27% 30.07 in 10.0 mi ESE 9.2 mph - N/A   Clear
9:34 PM 68.2 °F 32.0 °F 26% 30.08 in 10.0 mi ESE 9.2 mph - N/A   Clear
9:55 PM 66.7 °F 32.2 °F 28% 30.08 in 10.0 mi ESE 9.2 mph - N/A   Clear
10:15 PM 66.9 °F 32.0 °F 27% 30.08 in 10.0 mi East 8.1 mph - N/A   Clear
10:34 PM 65.7 °F 32.4 °F 29% 30.08 in 10.0 mi ESE 8.1 mph - N/A   Clear
10:55 PM 65.3 °F 32.7 °F 30% 30.08 in 10.0 mi ESE 8.1 mph - N/A   Clear
11:15 PM 63.7 °F 34.3 °F 34% 30.08 in 10.0 mi ESE 6.9 mph - N/A   Clear
11:34 PM 61.9 °F 35.4 °F 37% 30.08 in 10.0 mi East 5.8 mph - N/A   Clear
11:55 PM 61.3 °F 35.6 °F 38% 30.08 in 10.0 mi East 5.8 mph - N/A   Clear